Location: Sternwarte Stuttgart
(48.7670°N, 9.1830°E)
Time: 21:47:23
(UTC+02:00)

Okean O Rocket - Pass Details

Date: 24 January 2019
Orbit: 623 x 644 km, 98.2° (Epoch: 21 October)

Event Time Altitude Azimuth Distance (km) Brightness Sun altitude
Rises 04:22:35 0° 26° (NNE) 2,955 5.5 -36.1°
Reaches altitude 10° 04:25:16 10° 42° (NE) 2,044 4.7 -35.6°
Maximum altitude 04:28:41 21° 93° (E) 1,432 4.0 -35.1°
Enters shadow 04:29:03 21° 100° (E) 1,440 3.9 -35.0°
